Location: Lower Kingswood
(51.2667°N, 0.2167°W)
Time: 14:49:38
(UTC+00:00)

Cosmos 2360 Rocket - Pass Details

Date: 26 September 2023
Orbit: 833 x 845 km, 71.0° (Epoch: 07 December)

Event Time Altitude Azimuth Distance (km) Brightness Sun altitude
Rises 04:09:53 0° 327° (NNW) 3,413 5.2 -16.6°
Reaches altitude 10° 04:12:23 10° 322° (NW) 2,475 4.4 -16.2°
Maximum altitude 04:17:51 50° 249° (WSW) 1,071 2.3 -15.4°
Drops below altitude 10° 04:23:16 10° 175° (S) 2,462 4.5 -14.6°
Sets 04:25:46 0° 170° (S) 3,392 5.3 -14.3°
